Showing default

OT-FOREST-3 BJOERNTBW, 62682

Orbit data source: Space-Track

OT-FOREST-3 BJOERNTBW, 62682 is a payload satellite owned by OroraTech (DE) in SSO that was launched on Tue, 14 Jan 2025 UTC via an FALCON 9 launch vehicle from the Air Force Western Test Range (AFWTR). Payload-class satellites include a variety of spacecraft equipped with specific instruments for various scientific and technological missions. These include communications satellites like Starlink; space stations such as the ISS; scientific satellites like the Hubble; Earth observation satellites from companies like Planet Labs, Umbra, and HawkEye 360; GPS; miniature CubeSats for education and research; and military/defense satellites.

Loading next visibility...
Identifier
62682, 2025-009CB
Orbit
SSO
Country
Flag of DEDE / GER
Related business
Manufacturer
ORORA?
Mission
Operational Commercial Imaging
Bus & Motor
CUBESAT 8U, Unknown motor
Mass
~15 kg wet, ~15 kg dry
Launch date (UTC)
2025-01-14 (1 year ago)
Launch vehicle
FALCON 9
Launch site
Air Force Western Test Range (AFWTR)
Object type
Payload
Rocket body
Debris
Shape & HBR
Box, 0.2 m
Radar Cross Section
0.100 m², Small (<0.1 m²)

Expand to show TLE details & history
Last TLE update: 9 hours ago

TLE from 9 hours ago
0 OT-FOREST-3 BJOERNTBW
1 62682U 25009CB  26034.21476110  .00008143  00000-0  34948-3 0  9994
2 62682  97.4016 115.5517 0006439  94.5120 265.6853 15.22951467116039
Epoch: 2026-02-03T05:09Z
TLE epoch observation values (Epoch: 2026-02-03T05:09:15.359Z)
Latitude
0.00006°
Longitude
-95.1612°
Altitude
500.374 km
Speed
7.614 km/s
True Right ascension
07h 42m 12s
True Declination
0° 00' 00"
Sunlit
Object was in full shadow at epoch
Visualization orbit readout
Latitude
Unknown
Longitude
Unknown
Altitude
Unknown
Speed
Unknown
Apparent Right ascension
Unknown
Apparent Declination
Unknown
Sunlit
N/A
Visualization observer readout
Local Sidereal Time
16:27:35
Azimuth
Unknown
Elevation
Unknown
Doppler factor
Unknown
Orbital elements
Apogee altitude
498.33 km
Perigee altitude
489.48 km
Semi-major axis
6,872.042 km
Eccentricity
0.00064
Inclination
97.4016°
RAAN
115.5517°
Arg. of periapsis
94.512°
True anomaly
265.61173°
Mean anomaly
265.6853°
Eccentric anomaly
265.64851°
Mean motion
3.80991 °/min
Orbital period
94.49 mins
BSTAR
0.00034948
Loading maneuver chart data...
Computing Atmospheric mass density...
Loading historical data...
Loading historical data...
Loading historical data...
Loading historical data...
Loading historical data...
Loading historical data...
Loading historical data...

Documentation

Showing up to 5 results
|